Date String (YYYY-MM-DD hh:mm:ss) UTC,Instrument flags,absolute air pressure of the measurement (hPa),sample flow rate (lpm),inlet stack bypass flow (lpm),air temperature of the measurement (°C),ambient temperature measured by the external sensor (°C),aerosol sample conditioner tube jacket temperature (°C),OPC LED temperature (°C),internal box temperature (°C),relative humidity of the measurement (%),span deviation,mass concentration of particles derived from Lorenz-Mie calculation of OPC scattering (μg/m³),mass concentration of particles derived from Lorenz-Mie calculation of OPC scattering (μg/m³),mass concentration of particles derived from Lorenz-Mie calculation of OPC scattering (μg/m³)
DateTimeUTC,F1_M11,P_M11,Q1_M11,Q2_M11,T1_M11,T2_M11,T3_M11,T4_M11,T5_M11,U1_M11,ZSPAN_M11,X0_M11,X2_M11,X1_M11
2023-11-12 03:00:00,SystemResetWarning,0831.6,5.01,000.00,026.2,025.0,000.0,034.7,027.6,7.3,0000.0,0004.52,0002.51,0001.79
2023-11-12 03:01:00,SystemResetWarning,0831.5,5.00,000.00,026.2,025.0,000.0,034.7,027.6,7.2,0000.0,0004.63,0002.56,0001.79
2023-11-12 03:02:00,SystemResetWarning,0831.4,5.00,000.00,026.2,024.9,000.0,034.7,027.6,7.2,0000.0,0004.23,0002.54,0001.78
2023-11-12 03:03:00,SystemResetWarning,0831.4,5.00,000.00,026.2,024.9,000.0,034.7,027.5,7.2,0000.0,0004.23,0002.55,0001.79
2023-11-12 03:04:00,SystemResetWarning,0831.4,5.00,000.00,026.2,024.9,000.0,034.7,027.5,7.1,0000.0,0004.21,0002.58,0001.81
2023-11-12 03:05:00,SystemResetWarning,0831.5,5.00,000.00,026.2,024.9,000.0,034.6,027.5,7.1,0000.0,0004.05,0002.56,0001.82
2023-11-12 03:06:00,SystemResetWarning,0831.5,5.00,000.00,026.2,024.9,000.0,034.6,027.5,7.2,0000.0,0003.76,0002.49,0001.81
2023-11-12 03:07:00,SystemResetWarning,0831.5,5.00,000.00,026.1,024.8,000.0,034.6,027.5,7.3,0000.0,0003.74,0002.48,0001.81
2023-11-12 03:08:00,SystemResetWarning,0831.4,4.99,000.00,026.1,024.8,000.0,034.6,027.4,7.2,0000.0,0003.60,0002.40,0001.80
2023-11-12 03:09:00,SystemResetWarning,0831.3,4.99,000.00,026.1,024.7,000.0,034.6,027.5,7.1,0000.0,0003.61,0002.29,0001.77
2023-11-12 03:10:00,SystemResetWarning,0831.4,4.99,000.00,026.1,024.7,000.0,034.6,027.5,7.2,0000.0,0003.59,0002.23,0001.75
2023-11-12 03:11:00,SystemResetWarning,0831.4,5.00,000.00,026.1,024.7,000.0,034.6,027.5,7.4,0000.0,0003.54,0002.22,0001.75
2023-11-12 03:12:00,SystemResetWarning,0831.4,5.01,000.00,026.1,024.7,000.0,034.6,027.4,7.5,0000.0,0003.50,0002.20,0001.75
2023-11-12 03:13:00,SystemResetWarning,0831.4,5.01,000.00,026.0,024.7,000.0,034.5,027.4,7.4,0000.0,0003.50,0002.17,0001.74
2023-11-12 03:14:00,SystemResetWarning,0831.3,4.99,000.00,026.0,024.7,000.0,034.5,027.4,7.3,0000.0,0003.62,0002.18,0001.71
2023-11-12 03:15:00,SystemResetWarning,0831.4,4.99,000.00,026.0,024.7,000.0,034.5,027.4,7.2,0000.0,0003.81,0002.23,0001.71
2023-11-12 03:16:00,SystemResetWarning,0831.4,4.99,000.00,026.0,024.7,000.0,034.5,027.3,7.3,0000.0,0003.89,0002.25,0001.70
2023-11-12 03:17:00,SystemResetWarning,0831.5,5.00,000.00,026.0,024.6,000.0,034.5,027.3,7.6,0000.0,0003.84,0002.23,0001.70
2023-11-12 03:18:00,SystemResetWarning,0831.4,5.00,000.00,026.0,024.6,000.0,034.5,027.2,7.7,0000.0,0004.08,0002.20,0001.69
2023-11-12 03:19:00,SystemResetWarning,0831.4,4.99,000.00,025.9,024.6,000.0,034.5,027.3,7.6,0000.0,0004.02,0002.17,0001.67
2023-11-12 03:20:00,SystemResetWarning,0831.3,5.00,000.00,025.9,024.6,000.0,034.4,027.2,7.4,0000.0,0003.86,0002.15,0001.65
2023-11-12 03:21:00,SystemResetWarning,0831.4,5.00,000.00,025.9,024.6,000.0,034.4,027.2,7.1,0000.0,0003.80,0002.18,0001.64
2023-11-12 03:22:00,SystemResetWarning,0831.4,5.00,000.00,025.9,024.6,000.0,034.4,027.1,7.2,0000.0,0003.94,0002.17,0001.63
2023-11-12 03:23:00,SystemResetWarning,0831.3,5.01,000.00,025.9,024.5,000.0,034.4,027.1,7.1,0000.0,0004.17,0002.19,0001.62
2023-11-12 03:24:00,SystemResetWarning,0831.3,5.00,000.00,025.8,024.5,000.0,034.4,027.1,7.2,0000.0,0004.19,0002.21,0001.64
2023-11-12 03:25:00,SystemResetWarning,0831.3,5.00,000.00,025.8,024.5,000.0,034.4,027.0,7.2,0000.0,0004.11,0002.18,0001.63
2023-11-12 03:26:00,SystemResetWarning,0831.4,5.00,000.00,025.8,024.4,000.0,034.3,027.0,7.3,0000.0,0003.98,0002.11,0001.60
2023-11-12 03:27:00,SystemResetWarning,0831.4,5.00,000.00,025.8,024.4,000.0,034.3,027.0,7.2,0000.0,0003.98,0002.03,0001.54
2023-11-12 03:28:00,SystemResetWarning,0831.4,5.00,000.00,025.8,024.4,000.0,034.3,027.0,7.3,0000.0,0004.08,0002.03,0001.49
2023-11-12 03:29:00,SystemResetWarning,0831.4,5.00,000.00,025.8,024.3,000.0,034.3,027.0,7.3,0000.0,0004.29,0002.02,0001.45
2023-11-12 03:30:00,SystemResetWarning,0831.4,5.00,000.00,025.7,024.3,000.0,034.3,026.9,7.3,0000.0,0004.27,0001.99,0001.43
2023-11-12 03:31:00,SystemResetWarning,0831.3,4.99,000.00,025.7,024.3,000.0,034.2,026.9,7.2,0000.0,0004.29,0002.00,0001.43
2023-11-12 03:32:00,SystemResetWarning,0831.4,5.00,000.00,025.7,024.2,000.0,034.2,026.9,7.1,0000.0,0004.15,0001.93,0001.42
2023-11-12 03:33:00,SystemResetWarning,0831.4,5.00,000.00,025.7,024.2,000.0,034.2,026.9,7.2,0000.0,0005.26,0001.91,0001.39
2023-11-12 03:34:00,SystemResetWarning,0831.4,5.00,000.00,025.7,024.2,000.0,034.2,026.8,7.2,0000.0,0005.75,0001.90,0001.37
2023-11-12 03:35:00,SystemResetWarning,0831.4,5.00,000.00,025.6,024.1,000.0,034.2,026.8,7.2,0000.0,0006.00,0001.86,0001.33
2023-11-12 03:36:00,SystemResetWarning,0831.4,5.00,000.00,025.6,024.1,000.0,034.1,026.8,7.2,0000.0,0006.72,0001.86,0001.30
2023-11-12 03:37:00,SystemResetWarning,0831.5,5.00,000.00,025.6,024.1,000.0,034.1,026.8,7.2,0000.0,0006.90,0001.88,0001.31
2023-11-12 03:38:00,SystemResetWarning,0831.4,5.00,000.00,025.6,024.1,000.0,034.1,026.7,7.2,0000.0,0007.11,0001.87,0001.33
2023-11-12 03:39:00,SystemResetWarning,0831.5,5.00,000.00,025.6,024.0,000.0,034.1,026.7,7.1,0000.0,0007.20,0001.89,0001.34
2023-11-12 03:40:00,SystemResetWarning,0831.5,5.01,000.00,025.5,024.0,000.0,034.1,026.7,7.1,0000.0,0007.13,0001.92,0001.36
2023-11-12 03:41:00,SystemResetWarning,0831.5,5.00,000.00,025.5,024.0,000.0,034.0,026.7,7.0,0000.0,0007.10,0001.95,0001.36
2023-11-12 03:42:00,SystemResetWarning,0831.6,5.00,000.00,025.5,024.0,000.0,034.0,026.7,7.0,0000.0,0007.16,0001.98,0001.36
2023-11-12 03:43:00,SystemResetWarning,0831.6,5.01,000.00,025.5,024.0,000.0,034.0,026.7,7.1,0000.0,0007.39,0002.04,0001.36
2023-11-12 03:44:00,SystemResetWarning,0831.6,5.00,000.00,025.5,024.0,000.0,034.0,026.7,7.2,0000.0,0006.57,0002.07,0001.36
2023-11-12 03:45:00,SystemResetWarning,0831.6,5.00,000.00,025.5,024.0,000.0,034.0,026.7,7.2,0000.0,0005.71,0002.06,0001.35
2023-11-12 03:46:00,SystemResetWarning,0831.6,4.99,000.00,025.4,024.0,000.0,034.0,026.7,7.2,0000.0,0005.57,0002.08,0001.34
2023-11-12 03:47:00,SystemResetWarning,0831.6,4.99,000.00,025.4,024.0,000.0,034.0,026.6,7.2,0000.0,0004.70,0002.08,0001.35
2023-11-12 03:48:00,SystemResetWarning,0831.6,5.00,000.00,025.4,024.0,000.0,033.9,026.6,7.2,0000.0,0004.55,0002.06,0001.34
2023-11-12 03:49:00,SystemResetWarning,0831.7,4.99,000.00,025.4,024.0,000.0,033.9,026.7,7.3,0000.0,0004.22,0002.05,0001.35
2023-11-12 03:50:00,SystemResetWarning,0831.6,5.00,000.00,025.4,024.0,000.0,033.9,026.6,7.4,0000.0,0004.00,0002.03,0001.36
2023-11-12 03:51:00,SystemResetWarning,0831.6,5.00,000.00,025.4,024.0,000.0,033.9,026.6,7.4,0000.0,0003.68,0001.98,0001.35
2023-11-12 03:52:00,SystemResetWarning,0831.7,5.01,000.00,025.4,024.0,000.0,033.9,026.7,7.3,0000.0,0003.40,0001.92,0001.34
2023-11-12 03:53:00,SystemResetWarning,0831.7,5.01,000.00,025.4,024.0,000.0,033.9,026.6,7.4,0000.0,0003.29,0001.88,0001.34
2023-11-12 03:54:00,SystemResetWarning,0831.7,5.00,000.00,025.3,024.0,000.0,033.9,026.6,7.4,0000.0,0003.12,0001.87,0001.34
2023-11-12 03:55:00,SystemResetWarning,0831.7,5.00,000.00,025.3,024.0,000.0,033.8,026.6,7.4,0000.0,0003.20,0001.90,0001.35
2023-11-12 03:56:00,SystemResetWarning,0831.7,5.00,000.00,025.3,024.0,000.0,033.8,026.6,7.5,0000.0,0003.14,0001.89,0001.36
2023-11-12 03:57:00,SystemResetWarning,0831.7,5.00,000.00,025.3,024.0,000.0,033.8,026.6,7.5,0000.0,0003.12,0001.89,0001.38
2023-11-12 03:58:00,SystemResetWarning,0831.8,4.99,000.00,025.3,024.0,000.0,033.8,026.6,7.5,0000.0,0003.46,0001.87,0001.39
2023-11-12 03:59:00,SystemResetWarning,0832.0,5.00,000.00,025.3,024.0,000.0,033.8,026.6,7.5,0000.0,0003.89,0001.91,0001.39
